Location: Slanting_Bridge
(35.6330°N, 80.9830°W)
Time: 18:17:23
(UTC-04:00)

Hamsat - Visible Passes

Search period start: 28 July 2016 00:00
Search period end: 07 August 2016 00:00
Orbit: 585 x 620 km, 97.6° (Epoch: 27 July)

Date Brightness Start Highest point End Pass type
(mag) Time Alt. Az. Time Alt. Az. Time Alt. Az.
28 Jul ? 04:53:58 10° ENE 04:56:11 14° E 04:58:22 10° SE visible
29 Jul ? 05:05:16 10° NE 05:08:18 19° E 05:11:20 10° SE visible
30 Jul ? 05:16:52 10° NE 05:20:25 27° E 05:23:57 10° SSE visible
31 Jul ? 05:28:37 10° NNE 05:32:30 38° E 05:36:22 10° SSE visible
01 Aug ? 05:40:29 10° NNE 05:44:34 54° E 05:48:39 10° S visible
02 Aug ? 05:52:27 10° NNE 05:56:37 78° ESE 06:00:47 10° S visible
03 Aug ? 06:04:30 10° N 06:08:39 74° WNW 06:12:48 10° SSW visible
04 Aug ? 04:44:02 10° E 04:44:36 10° E 04:45:11 10° E visible
05 Aug ? 04:54:23 10° ENE 04:56:45 15° E 04:59:06 10° SE visible
06 Aug ? 05:05:43 10° NE 05:08:51 20° E 05:12:00 10° SE visible
